[[{"header":{"parameterUnit":"m.s-1","parameterCategory":1,"la1":30.2991,"la2":30.254,"lo1":-89.0895,"lo2":-89.0444,"dy":0.0017,"dx":0.0017,"nx":28,"ny":28,"refTime":"2023-10-27T09:00:00:Z","depth":0,"parameterNumber":2,"parameterNumberName":"U-component_of_WINDS"},"data":[0,0,0,0,0,0,0,0,0,0,0,0,0,0,0,0,0,0,0,0,0,0,0,0,0,0,0,0,0,0,0,0,0,0,0,0,0,0,0,0,0,0,0,0,0,0,0,0,0,0,0,0,0,0,0,0,0,0,-3.0504,-3.0504,0,-3.0505,-3.0505,-3.0505,-3.041,-3.0408,-3.0405,-3.0403,-3.0401,-3.0404,-3.0406,0,0,0,0,0,0,0,0,0,0,0,0,0,-3.0421,-3.0423,-3.0504,-3.0504,-3.0504,-3.0505,-3.0505,-3.0505,-3.0411,-3.0408,-3.0405,-3.0402,-3.0401,-3.0403,-3.0406,0,0,0,0,0,0,0,0,0,0,0,0,0,-3.0443,-3.0424,-3.0504,-3.0458,-3.0453,-3.0505,-3.0505,-3.0505,-3.0411,-3.0407,-3.0404,-3.04,-3.04,-3.0403,-3.0407,-3.0502,0,0,-3.0417,-3.0418,0,0,0,0,0,0,0,0,-3.0442,-3.0446,-3.0464,-3.0461,-3.0456,-3.0454,-3.0475,-3.0504,-3.0412,-3.0427,-3.0403,-3.0398,-3.0422,-3.0423,-3.0431,-3.0502,-3.0502,-3.0417,-3.0419,-3.0421,-3.0422,0,0,0,0,0,0,0,-3.0441,-3.0446,-3.0504,-3.0465,-3.046,-3.0436,-3.0435,-3.048,-3.0445,-3.0426,-3.0419,-3.042,-3.0419,-3.0428,-3.0431,-3.0502,-3.0417,-3.042,-3.0422,-3.0424,-3.0651,-3.0655,0,0,0,0,0,0,-3.0446,-3.0445,-3.0504,-3.0504,-3.044,-3.0441,-3.0439,-3.0458,-3.0445,-3.0439,-3.0423,-3.0416,-3.0424,-3.0427,-3.043,-3.054,-3.0421,-3.0424,-3.0426,-3.0647,-3.0652,-3.0657,0,0,0,0,0,0,-3.0444,-3.0452,-3.0504,-3.0473,-3.0478,-3.0446,-3.0468,-3.046,-3.0469,-3.0443,-3.0436,-3.0439,-3.0421,-3.0425,-3.0485,-3.0539,-3.0426,-3.0429,-3.0643,-3.0649,-3.0654,-3.0763,0,0,0,0,0,0,-3.0442,-3.0452,-3.0488,-3.0474,-3.048,-3.056,-3.0471,-3.0463,-3.0476,-3.0466,-3.0456,-3.0451,-3.0419,-3.048,-3.0488,-3.0542,-3.0431,-3.0638,-3.0645,-3.0652,-3.0754,-3.0772,-3.0787,0,0,0,0,0,-3.044,-3.0518,-3.049,-3.0498,-3.0524,-3.0563,-3.0566,-3.0528,-3.0481,-3.0516,-3.0499,-3.0451,-3.0533,-3.0487,-3.0496,-3.0551,-3.0634,-3.0643,-3.0652,-3.0747,-3.0768,-3.0786,0,0,0,0,0,0,-3.0537,-3.0515,-3.0484,-3.0561,-3.0565,-3.0547,-3.0591,-3.0552,-3.0569,-3.0559,-3.051,-3.0509,-3.0576,-3.057,-3.052,-3.0643,-3.0575,-3.0586,-3.0644,-3.0664,-3.068,-3.0679,-3.0434,0,0,0,0,0,-3.0568,-3.0602,-3.0581,-3.065,-3.0654,-3.0623,-3.0638,-3.0609,-3.061,-3.0611,-3.0599,-3.0602,-3.0628,-3.0646,-3.0669,-3.0754,-3.075,-3.0796,-3.0812,-3.0826,-3.0835,-3.0879,-3.0899,-3.0686,-3.0686,-3.0686,0,0,-3.0631,-3.0624,-3.0648,-3.067,-3.0669,-3.0705,-3.0624,-3.0665,-3.0691,-3.0617,-3.0672,-3.0664,-3.0664,-3.0737,-3.0769,-3.0734,-3.0893,-3.0837,-3.0848,-3.085,-3.089,-3.0911,-3.0928,-3.0692,-3.0691,-3.069,0,0,-3.0764,-3.0763,-3.082,-3.0822,-3.0823,-3.0802,-3.0816,-3.0805,-3.0796,-3.0852,-3.0797,-3.0827,-3.0873,-3.0876,-3.0883,-3.102,-3.0976,-3.1029,-3.1113,-3.1156,-3.1173,-3.1188,-3.1235,-3.1253,-3.1039,-3.1039,-3.1039,0,-3.0842,-3.0894,-3.0854,-3.0899,-3.091,-3.0847,-3.0905,-3.0908,-3.0916,-3.0925,-3.0887,-3.0944,-3.094,-3.1012,-3.1046,-3.1054,-3.1068,-3.1028,-3.1174,-3.1188,-3.1201,-3.1246,-3.1264,-3.1045,-3.1045,-3.1044,-3.1043,0,-3.099,-3.1027,-3.1073,-3.1084,-3.11,-3.1152,-3.1119,-3.1141,-3.1111,-3.1094,-3.1152,-3.1145,-3.1165,-3.1181,-3.1151,-3.1249,-3.1227,-3.1183,-3.1113,-3.1229,-3.127,-3.1287,-3.1054,-3.1052,-3.105,-3.1049,0,0,-3.1181,-3.1171,-3.1188,-3.1192,-3.119,-3.1217,-3.1267,-3.1287,-3.1306,-3.1315,-3.1354,-3.1396,-3.1354,-3.1363,-3.1334,-3.1373,-3.148,-3.1322,-3.1322,-3.1351,-3.1586,-3.1619,-3.1639,-3.1452,-3.1455,-3.1458,-3.1586,0,-3.1309,-3.1391,-3.1358,-3.1443,-3.1477,-3.1418,-3.1461,-3.1464,-3.145,-3.1476,-3.1461,-3.1491,-3.1435,-3.1439,-3.1475,-3.146,-3.1526,-3.145,-3.1487,-3.1488,-3.1486,-3.1661,-3.1695,-3.1816,-3.1602,-3.1605,-3.1607,0,-3.1468,-3.1484,-3.1573,-3.1566,-3.1578,-3.1617,-3.1634,-3.166,-3.1662,-3.165,-3.1661,-3.1623,-3.167,-3.1603,-3.1667,-3.1616,-3.1629,-3.1624,-3.1628,-3.1628,-3.1553,-3.1664,-3.1854,-3.1871,-3.1632,-3.163,-3.1628,0,-3.1597,-3.1641,-3.17,-3.1706,-3.1699,-3.1727,-3.1726,-3.1725,-3.1739,-3.1754,-3.1763,-3.1784,-3.1794,-3.1811,-3.178,-3.1734,-3.1848,-3.1778,-3.1837,-3.1838,-3.1861,-3.186,-3.2054,-3.1874,-3.1874,-3.1874,-3.1873,0,-3.1741,-3.1797,-3.1758,-3.1794,-3.1855,-3.1817,-3.1879,-3.1871,-3.1871,-3.1904,-3.1856,-3.1888,-3.1846,-3.1874,-3.1851,-3.1906,-3.1912,-3.1902,-3.1895,-3.1905,-3.1906,-3.1911,-3.1901,-3.1878,-3.1877,-3.1876,-3.1876,0,-3.1894,-3.187,-3.193,-3.192,-3.1918,-3.1964,-3.1955,-3.1987,-3.1972,-3.2014,-3.2022,-3.1997,-3.2027,-3.1999,-3.2028,-3.2012,-3.2086,-3.2068,-3.2085,-3.2079,-3.214,-3.2134,-3.2342,-3.2367,-3.2173,-3.2175,-3.2177,0,-3.1986,-3.2028,-3.2023,-3.2042,-3.2044,-3.2076,-3.2091,-3.2056,-3.2074,-3.2081,-3.2113,-3.214,-3.2159,-3.2211,-3.2195,-3.2217,-3.2197,-3.2269,-3.22,-3.221,-3.2196,-3.2193,-3.2197,-3.2282,-3.2285,-3.2286,-3.2288,0,-3.2152,-3.2139,-3.2163,-3.2185,-3.2205,-3.222,-3.223,-3.2249,-3.2213,-3.2236,-3.2267,-3.2282,-3.2313,-3.234,-3.2357,-3.2355,-3.2315,-3.2311,-3.2325,-3.2335,-3.2342,-3.2337,-3.2121,-3.2305,-3.2303,-3.2302,-3.2301,-3.23,-3.2276,-3.2311,-3.2313,-3.2342,-3.2347,-3.2359,-3.2389,-3.2378,-3.2404,-3.2426,-3.2405,-3.2443,-3.2445,-3.2465,-3.2468,-3.2496,-3.2466,-3.2488,-3.2492,-3.2498,-3.2506,-3.2341,-3.25,-3.2499,-3.2499,-3.2498,-3.2498,0,-3.2437,-3.2437,-3.2465,-3.2482,-3.2505,-3.2469,-3.2479,-3.2501,-3.2535,-3.2541,-3.2562,-3.2599,-3.2625,-3.2612,-3.2635,-3.2661,-3.2643,-3.2668,-3.2664,-3.2664,-3.2532,-3.2517,-3.2682,-3.2682,-3.2682,-3.2682,-3.2682,-3.2682,-3.2524,-3.2581,-3.2569,-3.2628,-3.2626,-3.2664,-3.2673,-3.2684,-3.2689,-3.2732,-3.2754,-3.2746,-3.2745,-3.2768,-3.279,-3.2786,-3.2796,-3.2827,-3.2815,-3.2692,-3.2674,-3.2656,-3.2641,-3.283,-3.283,-3.2944,-3.2945,-3.2946]},{"header":{"parameterUnit":"m.s-1","parameterCategory":1,"la1":30.2991,"la2":30.254,"lo1":-89.0895,"lo2":-89.0444,"dy":0.0017,"dx":0.0017,"nx":28,"ny":28,"refTime":"2023-10-27T09:00:00:Z","depth":0,"parameterNumber":3,"parameterNumberName":"V-component_of_WINDS"},"data":[0,0,0,0,0,0,0,0,0,0,0,0,0,0,0,0,0,0,0,0,0,0,0,0,0,0,0,0,0,0,0,0,0,0,0,0,0,0,0,0,0,0,0,0,0,0,0,0,0,0,0,0,0,0,0,0,0,0,-0.1676,-0.1676,0,-0.1663,-0.1663,-0.1663,-0.1659,-0.166,-0.166,-0.166,-0.1646,-0.1646,-0.1646,0,0,0,0,0,0,0,0,0,0,0,0,0,-0.1697,-0.1696,-0.1676,-0.1676,-0.1676,-0.1663,-0.1663,-0.1662,-0.1659,-0.166,-0.166,-0.166,-0.1647,-0.1646,-0.1646,0,0,0,0,0,0,0,0,0,0,0,0,0,-0.1686,-0.1696,-0.1676,-0.1673,-0.1672,-0.1663,-0.1663,-0.1662,-0.1659,-0.166,-0.166,-0.166,-0.1647,-0.1646,-0.1646,-0.1639,0,0,-0.1644,-0.1643,0,0,0,0,0,0,0,0,-0.1687,-0.1685,-0.1673,-0.1673,-0.1672,-0.1663,-0.1665,-0.1655,-0.1659,-0.1664,-0.166,-0.166,-0.1652,-0.1651,-0.1648,-0.1638,-0.1638,-0.1643,-0.1643,-0.1643,-0.1643,0,0,0,0,0,0,0,-0.1688,-0.1686,-0.1671,-0.1673,-0.1672,-0.1671,-0.167,-0.1663,-0.1657,-0.1664,-0.1664,-0.1662,-0.1652,-0.1649,-0.1648,-0.1637,-0.1643,-0.1643,-0.1643,-0.1642,-0.1619,-0.1619,0,0,0,0,0,0,-0.1689,-0.1687,-0.1671,-0.167,-0.168,-0.1671,-0.1669,-0.1666,-0.1658,-0.1656,-0.1662,-0.1662,-0.165,-0.1648,-0.1647,-0.1637,-0.1643,-0.1642,-0.1642,-0.1619,-0.1619,-0.1619,0,0,0,0,0,0,-0.1689,-0.1688,-0.1672,-0.1678,-0.1676,-0.167,-0.1666,-0.1665,-0.1663,-0.1656,-0.1655,-0.166,-0.165,-0.1648,-0.164,-0.1637,-0.1642,-0.1641,-0.1619,-0.1619,-0.1619,-0.1618,0,0,0,0,0,0,-0.169,-0.1688,-0.1686,-0.1678,-0.1676,-0.1665,-0.1666,-0.1665,-0.1661,-0.1661,-0.1654,-0.1653,-0.165,-0.1641,-0.164,-0.1636,-0.1641,-0.162,-0.1619,-0.1619,-0.1619,-0.1618,-0.1617,0,0,0,0,0,-0.1691,-0.1687,-0.1686,-0.1684,-0.1673,-0.1665,-0.1664,-0.166,-0.1661,-0.1658,-0.1654,-0.1653,-0.1638,-0.1641,-0.1639,-0.1635,-0.162,-0.1619,-0.1619,-0.1619,-0.1618,-0.1617,0,0,0,0,0,0,-0.1694,-0.1686,-0.1684,-0.1678,-0.1672,-0.1665,-0.1662,-0.166,-0.1654,-0.1654,-0.165,-0.1648,-0.164,-0.1637,-0.164,-0.1627,-0.1629,-0.1628,-0.1629,-0.1628,-0.1628,-0.1629,-0.164,0,0,0,0,0,-0.1694,-0.1689,-0.1682,-0.1676,-0.1673,-0.1668,-0.1664,-0.1662,-0.1656,-0.1654,-0.1649,-0.1643,-0.1636,-0.1632,-0.1626,-0.1618,-0.1615,-0.1614,-0.1614,-0.1613,-0.1612,-0.1606,-0.1604,-0.1617,-0.1617,-0.1617,0,0,-0.1694,-0.1689,-0.1686,-0.1677,-0.1672,-0.1666,-0.1666,-0.166,-0.1655,-0.1653,-0.1645,-0.1641,-0.1634,-0.1625,-0.1621,-0.1622,-0.1608,-0.1613,-0.1612,-0.1612,-0.1605,-0.1604,-0.1603,-0.1617,-0.1617,-0.1617,0,0,-0.1691,-0.1687,-0.1681,-0.1676,-0.1668,-0.1664,-0.1663,-0.1655,-0.1652,-0.1644,-0.1642,-0.1635,-0.1625,-0.1619,-0.1615,-0.1607,-0.1606,-0.1606,-0.1602,-0.1596,-0.1595,-0.1594,-0.159,-0.1588,-0.1605,-0.1605,-0.1605,0,-0.1692,-0.1683,-0.1678,-0.1672,-0.1667,-0.1664,-0.1657,-0.1653,-0.1644,-0.164,-0.1641,-0.1627,-0.1622,-0.1611,-0.1609,-0.1606,-0.1603,-0.1606,-0.1595,-0.1595,-0.1594,-0.1589,-0.1588,-0.1605,-0.1605,-0.1605,-0.1605,0,-0.1683,-0.1677,-0.1673,-0.1663,-0.1658,-0.1652,-0.1646,-0.1641,-0.1639,-0.1634,-0.1625,-0.1619,-0.161,-0.1607,-0.1606,-0.1596,-0.1596,-0.1596,-0.1598,-0.1592,-0.1588,-0.1587,-0.1605,-0.1605,-0.1605,-0.1605,0,0,-0.1683,-0.1669,-0.1668,-0.1663,-0.1653,-0.1648,-0.1641,-0.1632,-0.1627,-0.1621,-0.1614,-0.1604,-0.1603,-0.1598,-0.1595,-0.159,-0.1582,-0.1591,-0.159,-0.1588,-0.1569,-0.1568,-0.1566,-0.1581,-0.158,-0.158,-0.1569,0,-0.1677,-0.1664,-0.1659,-0.1648,-0.1641,-0.1637,-0.163,-0.1623,-0.1618,-0.1611,-0.1606,-0.1598,-0.1599,-0.1595,-0.159,-0.1584,-0.1578,-0.1585,-0.1573,-0.1573,-0.1574,-0.1564,-0.1564,-0.1553,-0.1567,-0.1567,-0.1567,0,-0.167,-0.1662,-0.165,-0.1639,-0.1636,-0.163,-0.162,-0.1614,-0.1605,-0.1602,-0.1596,-0.1592,-0.1583,-0.1586,-0.1573,-0.1577,-0.1572,-0.1568,-0.1568,-0.1566,-0.1569,-0.1561,-0.155,-0.1548,-0.1564,-0.1565,-0.1565,0,-0.1669,-0.1655,-0.1646,-0.1642,-0.163,-0.1625,-0.162,-0.1611,-0.1606,-0.1597,-0.1593,-0.1584,-0.1579,-0.1571,-0.1565,-0.1568,-0.1552,-0.1554,-0.1548,-0.1548,-0.1544,-0.1544,-0.1531,-0.1543,-0.1543,-0.1543,-0.1543,0,-0.1663,-0.1655,-0.1645,-0.1639,-0.163,-0.1624,-0.1614,-0.1609,-0.1601,-0.1593,-0.1589,-0.1582,-0.1575,-0.1566,-0.1561,-0.155,-0.1548,-0.1544,-0.1543,-0.1544,-0.1544,-0.154,-0.154,-0.1542,-0.1542,-0.1542,-0.1542,0,-0.1661,-0.1654,-0.1643,-0.1631,-0.1628,-0.1622,-0.1612,-0.1605,-0.1599,-0.1589,-0.1587,-0.1578,-0.1567,-0.156,-0.1547,-0.1544,-0.1531,-0.153,-0.1534,-0.1533,-0.1526,-0.1526,-0.1509,-0.1506,-0.152,-0.152,-0.152,0,-0.1657,-0.1651,-0.1638,-0.1632,-0.1627,-0.1618,-0.1612,-0.1605,-0.1598,-0.1586,-0.1581,-0.157,-0.1561,-0.1544,-0.1536,-0.1525,-0.1524,-0.1518,-0.1522,-0.1523,-0.1522,-0.1522,-0.152,-0.1517,-0.1517,-0.1517,-0.1517,0,-0.1651,-0.1647,-0.1638,-0.1627,-0.1619,-0.1611,-0.1602,-0.1597,-0.1589,-0.1581,-0.157,-0.1563,-0.1548,-0.1537,-0.1525,-0.1519,-0.1516,-0.1516,-0.1513,-0.1514,-0.1516,-0.1513,-0.1531,-0.1516,-0.1516,-0.1516,-0.1516,-0.1516,-0.1647,-0.164,-0.163,-0.1619,-0.1612,-0.1603,-0.1596,-0.1588,-0.1579,-0.1566,-0.1562,-0.155,-0.1539,-0.1523,-0.1517,-0.1506,-0.1507,-0.1504,-0.1503,-0.1502,-0.1501,-0.1518,-0.1504,-0.1504,-0.1504,-0.1504,-0.1504,0,-0.164,-0.1632,-0.1622,-0.1609,-0.1601,-0.1598,-0.1588,-0.158,-0.1569,-0.156,-0.155,-0.1536,-0.1524,-0.1515,-0.1502,-0.1496,-0.1494,-0.1493,-0.1493,-0.1491,-0.1502,-0.1505,-0.1494,-0.1494,-0.1494,-0.1494,-0.1494,-0.1494,-0.1635,-0.1623,-0.1617,-0.1601,-0.1593,-0.1581,-0.1575,-0.1566,-0.1558,-0.1542,-0.1532,-0.1526,-0.1515,-0.1502,-0.149,-0.1488,-0.1483,-0.1482,-0.1478,-0.1489,-0.149,-0.1491,-0.1494,-0.1481,-0.1481,-0.1468,-0.1468,-0.1467]}]]